Location: Hochstatterhof
(48.7256°N, 10.3487°E)
Time: 03:17:00
(UTC+00:00)

Cosmos 2219 Rocket - Pass Details

Date: 26 September 2023
Orbit: 826 x 848 km, 71.0° (Epoch: 04 December)

Event Time Altitude Azimuth Distance (km) Brightness Sun altitude
Rises 03:16:10 0° 333° (NNW) 3,394 5.3 -19.2°
Reaches altitude 10° 03:18:38 10° 336° (NNW) 2,460 4.6 -18.8°
Maximum altitude 03:24:15 66° 59° (ENE) 919 2.6 -18.0°
Drops below altitude 10° 03:29:52 10° 141° (SE) 2,459 4.9 -17.1°
Sets 03:32:20 0° 145° (SE) 3,393 5.6 -16.7°
